[[{"header":{"parameterUnit":"m.s-1","parameterCategory":1,"la1":30.2991,"la2":30.254,"lo1":-89.0895,"lo2":-89.0444,"dy":0.0017,"dx":0.0017,"nx":28,"ny":28,"refTime":"2025-03-29T03:00:00:Z","depth":0,"parameterNumber":2,"parameterNumberName":"U-component_of_WINDS"},"data":[0,0,0,0,0,0,0,0,0,0,0,0,0,0,0,0,0,0,0,0,0,0,0,0,0,0,0,0,0,0,0,0,0,0,0,0,0,0,0,0,0,0,0,0,0,0,0,0,0,0,0,0,0,0,0,0,0,0,-6.1844,-6.1844,0,-6.1843,-6.1843,-6.1843,-6.1748,-6.1745,-6.1743,-6.1741,-6.1739,-6.1742,-6.1744,0,0,0,0,0,0,0,0,0,0,0,0,0,-6.1764,-6.1766,-6.1844,-6.1844,-6.1844,-6.1843,-6.1843,-6.1843,-6.1748,-6.1745,-6.1742,-6.1739,-6.1739,-6.1741,-6.1744,0,0,0,0,0,0,0,0,0,0,0,0,0,-6.1785,-6.1767,-6.1844,-6.1796,-6.1792,-6.1843,-6.1843,-6.1843,-6.1749,-6.1745,-6.1741,-6.1738,-6.1738,-6.1741,-6.1745,-6.184,0,0,-6.1755,-6.1757,0,0,0,0,0,0,0,0,-6.1784,-6.1788,-6.1803,-6.18,-6.1795,-6.1792,-6.1814,-6.1842,-6.175,-6.1765,-6.174,-6.1736,-6.176,-6.1761,-6.1769,-6.184,-6.184,-6.1755,-6.1757,-6.1759,-6.176,0,0,0,0,0,0,0,-6.1782,-6.1787,-6.1843,-6.1804,-6.1799,-6.1775,-6.1774,-6.1819,-6.1784,-6.1764,-6.1757,-6.1758,-6.1757,-6.1766,-6.1768,-6.184,-6.1755,-6.1758,-6.176,-6.1762,-6.1989,-6.1993,0,0,0,0,0,0,-6.1787,-6.1787,-6.1843,-6.1843,-6.178,-6.178,-6.1779,-6.1797,-6.1783,-6.1777,-6.1761,-6.1754,-6.1762,-6.1765,-6.1768,-6.1878,-6.1759,-6.1762,-6.1764,-6.1985,-6.199,-6.1995,0,0,0,0,0,0,-6.1786,-6.1793,-6.1843,-6.1813,-6.1818,-6.1785,-6.1806,-6.1798,-6.1807,-6.1781,-6.1774,-6.1777,-6.1759,-6.1763,-6.1823,-6.1877,-6.1764,-6.1767,-6.1981,-6.1987,-6.1992,-6.21,0,0,0,0,0,0,-6.1784,-6.1793,-6.1829,-6.1815,-6.182,-6.1898,-6.181,-6.1801,-6.1814,-6.1804,-6.1794,-6.1789,-6.1757,-6.1818,-6.1826,-6.188,-6.1769,-6.1976,-6.1984,-6.1991,-6.2092,-6.2109,-6.2124,0,0,0,0,0,-6.1782,-6.186,-6.1831,-6.1839,-6.1864,-6.1902,-6.1904,-6.1866,-6.1819,-6.1854,-6.1837,-6.1789,-6.1871,-6.1825,-6.1833,-6.1889,-6.1972,-6.1981,-6.199,-6.2084,-6.2106,-6.2124,0,0,0,0,0,0,-6.1881,-6.1857,-6.1825,-6.1901,-6.1904,-6.1886,-6.1929,-6.189,-6.1906,-6.1896,-6.1848,-6.1847,-6.1914,-6.1907,-6.1858,-6.1981,-6.1913,-6.1924,-6.1982,-6.2002,-6.2018,-6.2017,-6.1772,0,0,0,0,0,-6.1912,-6.1945,-6.1922,-6.1991,-6.1994,-6.1962,-6.1977,-6.1947,-6.1948,-6.1949,-6.1936,-6.194,-6.1966,-6.1984,-6.2006,-6.2091,-6.2087,-6.2133,-6.215,-6.2163,-6.2173,-6.2217,-6.2236,-6.2024,-6.2024,-6.2024,0,0,-6.1976,-6.1966,-6.199,-6.2011,-6.2009,-6.2044,-6.1963,-6.2004,-6.2029,-6.1955,-6.201,-6.2002,-6.2002,-6.2075,-6.2106,-6.2071,-6.2231,-6.2175,-6.2186,-6.2188,-6.2228,-6.2248,-6.2266,-6.203,-6.2029,-6.2028,0,0,-6.2109,-6.2106,-6.2163,-6.2164,-6.2163,-6.2141,-6.2156,-6.2143,-6.2134,-6.2189,-6.2135,-6.2165,-6.2211,-6.2213,-6.222,-6.2357,-6.2313,-6.2366,-6.245,-6.2493,-6.251,-6.2524,-6.2572,-6.259,-6.2376,-6.2376,-6.2376,0,-6.2188,-6.2238,-6.2197,-6.2241,-6.2251,-6.2187,-6.2244,-6.2247,-6.2254,-6.2263,-6.2225,-6.2281,-6.2277,-6.2349,-6.2382,-6.2391,-6.2405,-6.2365,-6.2511,-6.2525,-6.2538,-6.2583,-6.2601,-6.2382,-6.2382,-6.2381,-6.238,0,-6.2335,-6.2371,-6.2417,-6.2426,-6.2442,-6.2492,-6.2458,-6.248,-6.245,-6.2432,-6.2489,-6.2482,-6.2502,-6.2517,-6.2488,-6.2585,-6.2564,-6.2519,-6.245,-6.2565,-6.2606,-6.2623,-6.2391,-6.2389,-6.2387,-6.2386,0,0,-6.2529,-6.2515,-6.2532,-6.2535,-6.2531,-6.2558,-6.2606,-6.2626,-6.2644,-6.2653,-6.2691,-6.2732,-6.2691,-6.2699,-6.267,-6.2709,-6.2816,-6.2659,-6.2658,-6.2687,-6.2922,-6.2954,-6.2975,-6.2788,-6.2791,-6.2794,-6.2921,0,-6.2657,-6.2737,-6.2702,-6.2786,-6.2819,-6.2759,-6.28,-6.2803,-6.2788,-6.2814,-6.2798,-6.2827,-6.2771,-6.2776,-6.2811,-6.2795,-6.2862,-6.2786,-6.2822,-6.2824,-6.2822,-6.2996,-6.3031,-6.3151,-6.2937,-6.294,-6.2942,0,-6.2817,-6.2831,-6.2919,-6.2908,-6.2921,-6.2959,-6.2974,-6.2999,-6.3001,-6.2987,-6.2998,-6.296,-6.3006,-6.294,-6.3002,-6.2951,-6.2965,-6.296,-6.2963,-6.2963,-6.2889,-6.3,-6.3189,-6.3207,-6.2967,-6.2965,-6.2963,0,-6.2948,-6.2989,-6.3047,-6.3052,-6.3042,-6.307,-6.3067,-6.3064,-6.3079,-6.3092,-6.3101,-6.3121,-6.3131,-6.3147,-6.3115,-6.307,-6.3183,-6.3113,-6.3172,-6.3173,-6.3197,-6.3195,-6.3389,-6.3209,-6.3209,-6.3208,-6.3208,0,-6.3094,-6.3149,-6.3105,-6.3141,-6.3201,-6.3161,-6.3222,-6.3212,-6.3211,-6.3243,-6.3194,-6.3225,-6.3182,-6.321,-6.3186,-6.3241,-6.3247,-6.3237,-6.323,-6.324,-6.3242,-6.3247,-6.3237,-6.3213,-6.3212,-6.3211,-6.321,0,-6.3249,-6.3223,-6.3281,-6.3267,-6.3265,-6.331,-6.3298,-6.333,-6.3313,-6.3354,-6.3362,-6.3335,-6.3364,-6.3335,-6.3363,-6.3347,-6.3421,-6.3402,-6.3421,-6.3415,-6.3475,-6.3469,-6.3677,-6.3702,-6.3508,-6.351,-6.3511,0,-6.3343,-6.3384,-6.3375,-6.3393,-6.3393,-6.3423,-6.3438,-6.34,-6.3417,-6.3422,-6.3454,-6.3479,-6.3497,-6.3548,-6.3531,-6.3552,-6.3532,-6.3604,-6.3535,-6.3545,-6.3532,-6.3529,-6.3532,-6.3617,-6.362,-6.3622,-6.3623,0,-6.3513,-6.3497,-6.352,-6.3538,-6.3556,-6.3569,-6.3578,-6.3595,-6.3557,-6.3578,-6.3608,-6.3622,-6.3651,-6.3677,-6.3693,-6.369,-6.3651,-6.3646,-6.366,-6.367,-6.3679,-6.3674,-6.3457,-6.364,-6.3639,-6.3637,-6.3636,-6.3636,-6.3639,-6.3673,-6.3672,-6.3698,-6.3701,-6.371,-6.374,-6.3726,-6.375,-6.377,-6.3747,-6.3784,-6.3784,-6.3802,-6.3804,-6.3832,-6.3802,-6.3823,-6.3828,-6.3834,-6.3842,-6.3676,-6.3835,-6.3834,-6.3834,-6.3834,-6.3833,0,-6.3805,-6.3801,-6.3826,-6.384,-6.3861,-6.3822,-6.383,-6.385,-6.3883,-6.3887,-6.3906,-6.394,-6.3965,-6.3951,-6.3972,-6.3998,-6.398,-6.4004,-6.4001,-6.4001,-6.3868,-6.3853,-6.4018,-6.4018,-6.4018,-6.4018,-6.4018,-6.4018,-6.3893,-6.3948,-6.3933,-6.3988,-6.3984,-6.4019,-6.4027,-6.4035,-6.4038,-6.4079,-6.4099,-6.409,-6.4086,-6.4107,-6.4128,-6.4123,-6.4133,-6.4164,-6.4153,-6.4029,-6.401,-6.3993,-6.3978,-6.4167,-6.4167,-6.4282,-6.4284,-6.4284]},{"header":{"parameterUnit":"m.s-1","parameterCategory":1,"la1":30.2991,"la2":30.254,"lo1":-89.0895,"lo2":-89.0444,"dy":0.0017,"dx":0.0017,"nx":28,"ny":28,"refTime":"2025-03-29T03:00:00:Z","depth":0,"parameterNumber":3,"parameterNumberName":"V-component_of_WINDS"},"data":[0,0,0,0,0,0,0,0,0,0,0,0,0,0,0,0,0,0,0,0,0,0,0,0,0,0,0,0,0,0,0,0,0,0,0,0,0,0,0,0,0,0,0,0,0,0,0,0,0,0,0,0,0,0,0,0,0,0,5.5525,5.5527,0,5.5659,5.566,5.5662,5.572,5.572,5.572,5.572,5.5852,5.5855,5.5859,0,0,0,0,0,0,0,0,0,0,0,0,0,5.5317,5.5321,5.5525,5.5527,5.5529,5.5659,5.566,5.5662,5.572,5.572,5.572,5.572,5.585,5.5855,5.5859,0,0,0,0,0,0,0,0,0,0,0,0,0,5.5424,5.5322,5.5525,5.5573,5.5579,5.5658,5.5661,5.5663,5.572,5.572,5.572,5.572,5.5849,5.5854,5.586,5.5899,0,0,5.5877,5.5879,0,0,0,0,0,0,0,0,5.5418,5.5432,5.5565,5.557,5.5577,5.5673,5.5636,5.5742,5.5721,5.5667,5.572,5.572,5.5792,5.5802,5.5828,5.5906,5.5911,5.5877,5.5881,5.5883,5.5884,0,0,0,0,0,0,0,5.5411,5.5427,5.5578,5.5566,5.5574,5.5587,5.5602,5.5656,5.5729,5.5671,5.5676,5.5691,5.5795,5.5822,5.5831,5.5913,5.5877,5.5882,5.5885,5.5888,5.6032,5.6032,0,0,0,0,0,0,5.5396,5.542,5.5574,5.5582,5.5495,5.5591,5.5608,5.5642,5.5729,5.5742,5.5691,5.5693,5.5813,5.5825,5.5836,5.5889,5.5883,5.5888,5.5891,5.6031,5.6032,5.6032,0,0,0,0,0,0,5.5391,5.5409,5.5568,5.5502,5.5524,5.5595,5.5633,5.5645,5.5672,5.5744,5.5757,5.5706,5.5813,5.5828,5.5884,5.5895,5.5891,5.5896,5.6031,5.6031,5.6032,5.5995,0,0,0,0,0,0,5.5385,5.5407,5.5423,5.5502,5.5527,5.5615,5.5634,5.5648,5.5682,5.5686,5.5761,5.5773,5.5814,5.5875,5.5889,5.5902,5.59,5.603,5.6031,5.6032,5.5995,5.5994,5.5993,0,0,0,0,0,5.5377,5.5406,5.5424,5.5442,5.5549,5.5615,5.5629,5.5678,5.5683,5.5699,5.5746,5.577,5.5891,5.5881,5.5897,5.5911,5.603,5.6031,5.6032,5.5996,5.5994,5.5993,0,0,0,0,0,0,5.5324,5.5417,5.5438,5.5493,5.5546,5.5625,5.5647,5.5674,5.5725,5.5727,5.5783,5.58,5.5851,5.5887,5.5873,5.5955,5.5962,5.5967,5.5929,5.5929,5.5928,5.5918,5.5904,0,0,0,0,0,5.5319,5.5367,5.5445,5.5486,5.5512,5.5575,5.5605,5.5639,5.5695,5.5717,5.5767,5.582,5.587,5.5901,5.5951,5.6001,5.6018,5.6019,5.6018,5.6017,5.602,5.605,5.6051,5.6036,5.6036,5.6036,0,0,5.5309,5.5366,5.5391,5.5477,5.5522,5.5568,5.5593,5.5641,5.5676,5.5724,5.578,5.5819,5.5881,5.5935,5.596,5.5966,5.6028,5.6018,5.6017,5.6021,5.6051,5.6053,5.6054,5.6037,5.6037,5.6037,0,0,5.5314,5.5362,5.5402,5.5447,5.5516,5.5558,5.5568,5.5643,5.5671,5.5729,5.5766,5.5808,5.5893,5.5936,5.5969,5.5993,5.6018,5.6008,5.6002,5.603,5.6032,5.6033,5.6042,5.6044,5.6011,5.6011,5.6011,0,5.5292,5.5365,5.5419,5.5466,5.5502,5.555,5.5591,5.5632,5.5712,5.5735,5.5741,5.585,5.5895,5.596,5.5966,5.5991,5.6004,5.5999,5.6027,5.6029,5.6031,5.604,5.6044,5.6009,5.6009,5.6009,5.601,0,5.5335,5.5385,5.5409,5.5488,5.5528,5.5571,5.5631,5.5664,5.5694,5.5735,5.5794,5.5851,5.5913,5.5931,5.596,5.6,5.6002,5.6017,5.6025,5.603,5.604,5.6044,5.6007,5.6007,5.6008,5.6008,0,0,5.5308,5.5419,5.5427,5.5464,5.5544,5.5583,5.5629,5.5693,5.572,5.5774,5.5814,5.5886,5.5901,5.5938,5.5973,5.5998,5.6014,5.601,5.6012,5.6009,5.6063,5.6051,5.6054,5.6031,5.6032,5.6033,5.6058,0,5.5324,5.5411,5.5461,5.5526,5.5573,5.562,5.566,5.5713,5.5754,5.5799,5.5843,5.5893,5.5909,5.5932,5.5959,5.6006,5.6026,5.6005,5.6068,5.607,5.6051,5.6059,5.6046,5.6067,5.6061,5.6062,5.6063,0,5.5354,5.541,5.548,5.5557,5.5579,5.5614,5.5677,5.572,5.5781,5.5809,5.5852,5.5887,5.5937,5.5942,5.6011,5.5996,5.6025,5.6052,5.6054,5.6062,5.6066,5.6066,5.6074,5.6077,5.6069,5.6068,5.6068,0,5.5328,5.5421,5.5476,5.5506,5.5596,5.562,5.5658,5.572,5.5755,5.581,5.5834,5.5892,5.5925,5.5969,5.6019,5.6018,5.6083,5.6093,5.6107,5.6106,5.6118,5.6116,5.613,5.6137,5.6137,5.6137,5.6137,0,5.5341,5.5382,5.5466,5.5499,5.5546,5.5604,5.5649,5.5691,5.5746,5.5787,5.5831,5.5869,5.5933,5.5979,5.6018,5.607,5.6084,5.6107,5.6117,5.6103,5.61,5.6122,5.6122,5.6138,5.6137,5.6137,5.6137,0,5.532,5.5377,5.544,5.5521,5.5543,5.5574,5.5644,5.5677,5.5721,5.5774,5.5789,5.5857,5.5913,5.5968,5.6043,5.6069,5.6121,5.6134,5.61,5.6106,5.6117,5.6115,5.6146,5.6153,5.6154,5.6154,5.6154,0,5.5324,5.5357,5.5443,5.5475,5.5513,5.5564,5.5601,5.566,5.5696,5.577,5.5795,5.5855,5.5906,5.5994,5.6049,5.6107,5.6121,5.6128,5.613,5.6116,5.6122,5.6119,5.6123,5.6126,5.6126,5.6126,5.6126,0,5.5325,5.5352,5.5405,5.5469,5.5512,5.5565,5.5618,5.5641,5.571,5.5749,5.5809,5.5848,5.5926,5.5985,5.605,5.6089,5.6118,5.6125,5.6131,5.6117,5.6097,5.6108,5.6096,5.6124,5.6124,5.6124,5.6124,5.6124,5.5316,5.5349,5.5415,5.5473,5.552,5.5569,5.5606,5.5655,5.5706,5.5776,5.5807,5.5866,5.5928,5.6018,5.6057,5.6104,5.6111,5.612,5.6122,5.6124,5.6121,5.609,5.6116,5.6116,5.6116,5.6116,5.6116,0,5.532,5.5366,5.5418,5.5493,5.5539,5.5566,5.5627,5.5662,5.5715,5.5771,5.5821,5.589,5.5948,5.6009,5.607,5.6096,5.6111,5.611,5.6108,5.6117,5.6111,5.6099,5.6097,5.6097,5.6097,5.6097,5.6097,5.6097,5.5327,5.5384,5.5419,5.5499,5.5544,5.5605,5.5638,5.5684,5.5729,5.5804,5.5853,5.5893,5.5951,5.6017,5.6072,5.6088,5.6108,5.6103,5.6123,5.6116,5.6117,5.6118,5.6108,5.6107,5.6107,5.6126,5.6126,5.6126]}]]